Change the Weather History Date:

Friday, January 24, 2014

  Actual Average Record
Temperature  
Mean Temperature 11 °F 36 °F  
Max Temperature 25 °F 45 °F 68 °F (1967)
Min Temperature -4 °F 27 °F -16 °F (1963)
Degree Days  
Heating Degree Days 54    
Month to date heating degree days 809  
Since 1 July heating degree days 2489  
Cooling Degree Days 0    
Month to date cooling degree days 0  
Year to date cooling degree days 0  
Moisture  
Dew Point -2 °F    
Average Humidity 60    
Maximum Humidity 87    
Minimum Humidity 32    
Precipitation  
Precipitation 0.00 in 0.15 in 2.15 in (2010)
Month to date precipitation 2.23 3.70  
Year to date precipitation 2.23 3.70  
Sea Level Pressure  
Sea Level Pressure 30.47 in    
Wind  
Wind Speed 4 mph (SSW)    
Max Wind Speed 13 mph    
Max Gust Speed 21 mph    
Visibility 10 miles    
Events      
T = Trace of Precipitation, MM = Missing Value Source: NWS Daily Summary

Daily Weather History Graph

Daily Weather History Graph

Search for Another Location

Airport or City:

Trip Planner

Search our weather history database for the weather conditions in past years. The results will help you decide how hot, cold, wet, or windy it might be!

Date:

Astronomy

Jan. 24, 2014 Rise Set
Actual Time 6:46 AM CST 4:59 PM CST
Civil Twilight 6:18 AM CST 5:26 PM CST
Nautical Twilight 5:47 AM CST 5:57 PM CST
Astronomical Twilight 5:17 AM CST 6:27 PM CST
Moon 12:15 AM CST (1/24) 11:15 AM CST (1/24)
Length of Visible Light 11h 07m
Length of Day
10h 12m
Last Quarter, 44% of the Moon is Illuminated
Jan 24
Last Quarter
Jan 30
New
Feb 6
First Quarter
Feb 14
Full
Feb 22
Last Quarter

Hourly Weather History & Observations

Time (CST) Temp. Windchill Dew Point Humidity Pressure Visibility Wind Dir Wind Speed Gust Speed Precip Events Conditions
12:26 AM 3.2 °F -9.1 °F -2.2 °F 78% 30.55 in 10.0 mi NW 6.9 mph - N/A   Scattered Clouds
12:53 AM 3.0 °F -6.4 °F -4.0 °F 73% 30.66 in 10.0 mi NW 4.6 mph - N/A   Partly Cloudy
1:53 AM 1.9 °F - -2.9 °F 80% 30.68 in 10.0 mi Calm Calm - N/A   Clear
2:53 AM -0.0 °F - -4.0 °F 83% 30.67 in 10.0 mi Calm Calm - N/A   Clear
3:53 AM -0.9 °F - -5.1 °F 83% 30.66 in 10.0 mi Calm Calm - N/A   Clear
4:53 AM -2.0 °F - -6.0 °F 83% 30.64 in 10.0 mi Calm Calm - N/A   Clear
5:53 AM -2.9 °F - -7.1 °F 82% 30.64 in 10.0 mi Calm Calm - N/A   Clear
6:53 AM -2.9 °F -11.2 °F -7.1 °F 82% 30.64 in 10.0 mi West 3.5 mph - N/A   Clear
7:53 AM 1.0 °F - -2.0 °F 87% 30.64 in 10.0 mi Calm Calm - N/A   Clear
8:53 AM 5.0 °F -2.1 °F -0.0 °F 80% 30.64 in 10.0 mi Variable 3.5 mph - N/A   Clear
9:53 AM 10.0 °F 0.4 °F 1.0 °F 67% 30.62 in 10.0 mi Variable 5.8 mph - N/A   Clear
10:53 AM 15.1 °F 7.7 °F 1.9 °F 56% 30.58 in 10.0 mi Variable 4.6 mph - N/A   Clear
11:53 AM 18.0 °F 9.8 °F -2.0 °F 41% 30.53 in 10.0 mi Variable 5.8 mph - N/A   Clear
12:53 PM 19.9 °F 11.1 °F -0.0 °F 42% 30.47 in 10.0 mi South 6.9 mph - N/A   Clear
1:53 PM 21.9 °F 14.5 °F -2.0 °F 35% 30.44 in 10.0 mi Variable 5.8 mph - N/A   Clear
2:53 PM 24.1 °F 17.0 °F -0.9 °F 34% 30.40 in 10.0 mi Variable 5.8 mph - N/A   Clear
3:53 PM 24.1 °F 17.0 °F -2.0 °F 32% 30.36 in 10.0 mi South 5.8 mph - N/A   Clear
4:53 PM 21.9 °F 17.2 °F -0.9 °F 37% 30.34 in 10.0 mi South 3.5 mph - N/A   Clear
5:53 PM 19.9 °F 10.1 °F -0.9 °F 40% 30.32 in 10.0 mi South 8.1 mph - N/A   Clear
6:53 PM 19.0 °F 10.0 °F -2.0 °F 40% 30.28 in 10.0 mi South 6.9 mph - N/A   Clear
7:53 PM 18.0 °F 9.8 °F -2.0 °F 41% 30.26 in 10.0 mi Variable 5.8 mph - N/A   Clear
8:53 PM 17.1 °F 10.0 °F -2.0 °F 43% 30.26 in 10.0 mi Variable 4.6 mph - N/A   Clear
9:53 PM 17.1 °F 10.0 °F -0.0 °F 47% 30.19 in 10.0 mi Variable 4.6 mph - N/A   Clear
10:53 PM 19.0 °F 9.0 °F -0.9 °F 42% 30.15 in 10.0 mi SSW 8.1 mph 19.6 mph N/A   Clear
11:53 PM 18.0 °F 6.1 °F -0.9 °F 44% 30.11 in 10.0 mi SSW 10.4 mph 19.6 mph N/A   Clear